Time,TemperatureF,DewpointF,PressureIn,WindDirection,WindDirectionDegrees,WindSpeedMPH,WindSpeedGustMPH,Humidity,HourlyPrecipIn,Conditions,Clouds,dailyrainin,SoftwareType,DateUTC
2013-07-25 00:02:00,73.0,60.0,29.98,North,360,0.0,0.0,63,0.00,,,0.00,,2013-07-25 05:02:00,
2013-07-25 00:12:00,73.0,60.0,29.98,North,360,0.0,0.0,63,0.00,,,0.00,,2013-07-25 05:12:00,
2013-07-25 00:22:00,72.0,60.0,30.02,North,360,0.0,0.0,65,0.00,,,0.00,,2013-07-25 05:22:00,
2013-07-25 00:32:00,72.0,60.0,30.02,North,360,0.0,0.0,65,0.00,,,0.00,,2013-07-25 05:32:00,
2013-07-25 00:43:00,72.0,60.0,30.02,North,360,0.0,0.0,65,0.00,,,0.00,,2013-07-25 05:43:00,
2013-07-25 00:52:00,71.0,59.0,30.02,North,360,0.0,0.0,67,0.00,,,0.00,,2013-07-25 05:52:00,
2013-07-25 01:02:00,71.0,59.0,30.02,North,360,0.0,0.0,67,0.00,,,0.00,,2013-07-25 06:02:00,
2013-07-25 01:12:00,71.0,59.0,30.02,North,360,0.0,0.0,67,0.00,,,0.00,,2013-07-25 06:12:00,
2013-07-25 01:22:00,70.0,59.0,30.01,North,360,0.0,0.0,69,0.00,,,0.00,,2013-07-25 06:22:00,
2013-07-25 01:32:00,70.0,59.0,30.01,North,360,0.0,0.0,69,0.00,,,0.00,,2013-07-25 06:32:00,
2013-07-25 01:42:00,70.0,59.0,30.01,North,360,0.0,0.0,69,0.00,,,0.00,,2013-07-25 06:42:00,
2013-07-25 01:52:00,69.0,60.0,30.03,North,360,0.0,0.0,72,0.00,,,0.00,,2013-07-25 06:52:00,
2013-07-25 02:02:00,69.0,60.0,30.03,North,360,0.0,0.0,72,0.00,,,0.00,,2013-07-25 07:02:00,
2013-07-25 02:12:00,69.0,60.0,30.03,North,360,0.0,0.0,72,0.00,,,0.00,,2013-07-25 07:12:00,
2013-07-25 02:22:00,69.0,60.0,30.02,North,360,0.0,0.0,74,0.00,,,0.00,,2013-07-25 07:22:00,
2013-07-25 02:33:00,69.0,60.0,30.02,North,360,0.0,0.0,74,0.00,,,0.00,,2013-07-25 07:33:00,
2013-07-25 02:43:00,69.0,60.0,30.02,North,360,0.0,0.0,74,0.00,,,0.00,,2013-07-25 07:43:00,
2013-07-25 02:53:00,69.0,61.0,30.02,North,360,0.0,0.0,75,0.00,,,0.00,,2013-07-25 07:53:00,
2013-07-25 03:02:00,69.0,61.0,30.02,North,360,0.0,0.0,75,0.00,,,0.00,,2013-07-25 08:02:00,
2013-07-25 03:12:00,69.0,61.0,30.02,North,360,0.0,0.0,75,0.00,,,0.00,,2013-07-25 08:12:00,
2013-07-25 03:22:00,68.0,60.0,30.02,North,360,0.0,0.0,76,0.00,,,0.00,,2013-07-25 08:22:00,
2013-07-25 03:32:00,68.0,60.0,30.02,North,360,0.0,0.0,76,0.00,,,0.00,,2013-07-25 08:32:00,
2013-07-25 03:44:00,68.0,60.0,30.02,North,360,0.0,0.0,76,0.00,,,0.00,,2013-07-25 08:44:00,
2013-07-25 03:52:00,68.0,61.0,30.03,North,360,0.0,1.0,78,0.00,,,0.00,,2013-07-25 08:52:00,
2013-07-25 04:02:00,68.0,61.0,30.03,North,360,0.0,1.0,78,0.00,,,0.00,,2013-07-25 09:02:00,
2013-07-25 04:12:00,68.0,61.0,30.03,North,360,0.0,1.0,78,0.00,,,0.00,,2013-07-25 09:12:00,
2013-07-25 04:22:00,68.0,61.0,30.03,North,360,0.0,0.0,77,0.00,,,0.00,,2013-07-25 09:22:00,
2013-07-25 04:33:00,68.0,61.0,30.03,North,360,0.0,0.0,77,0.00,,,0.00,,2013-07-25 09:33:00,
2013-07-25 04:43:00,68.0,61.0,30.03,North,360,0.0,0.0,77,0.00,,,0.00,,2013-07-25 09:43:00,
2013-07-25 04:53:00,68.0,61.0,30.03,NNE,30,1.0,1.0,77,0.00,,,0.00,,2013-07-25 09:53:00,
2013-07-25 05:02:00,68.0,61.0,30.03,NNE,30,1.0,1.0,77,0.00,,,0.00,,2013-07-25 10:02:00,
2013-07-25 05:12:00,68.0,61.0,30.03,NNE,30,1.0,1.0,77,0.00,,,0.00,,2013-07-25 10:12:00,
2013-07-25 05:22:00,68.0,61.0,30.02,NE,41,0.0,1.0,77,0.00,,,0.00,,2013-07-25 10:22:00,
2013-07-25 05:32:00,68.0,61.0,30.02,NE,41,0.0,1.0,77,0.00,,,0.00,,2013-07-25 10:32:00,
2013-07-25 05:43:00,68.0,61.0,30.02,NE,41,0.0,1.0,77,0.00,,,0.00,,2013-07-25 10:43:00,
2013-07-25 05:53:00,68.0,60.0,30.02,North,360,0.0,1.0,75,0.00,,,0.00,,2013-07-25 10:53:00,
2013-07-25 06:02:00,68.0,60.0,30.02,North,360,0.0,1.0,75,0.00,,,0.00,,2013-07-25 11:02:00,
2013-07-25 06:12:00,68.0,60.0,30.02,North,360,0.0,1.0,75,0.00,,,0.00,,2013-07-25 11:12:00,
2013-07-25 06:22:00,68.0,60.0,30.01,ESE,105,1.0,3.0,75,0.00,,,0.00,,2013-07-25 11:22:00,
2013-07-25 06:32:00,68.0,60.0,30.01,ESE,105,1.0,3.0,75,0.00,,,0.00,,2013-07-25 11:32:00,
2013-07-25 06:43:00,68.0,60.0,30.01,ESE,105,1.0,3.0,75,0.00,,,0.00,,2013-07-25 11:43:00,
2013-07-25 06:52:00,68.0,60.0,30.02,ESE,106,1.0,3.0,76,0.00,,,0.00,,2013-07-25 11:52:00,
2013-07-25 07:02:00,68.0,60.0,30.02,ESE,106,1.0,3.0,76,0.00,,,0.00,,2013-07-25 12:02:00,
2013-07-25 07:12:00,68.0,60.0,30.02,ESE,106,1.0,3.0,76,0.00,,,0.00,,2013-07-25 12:12:00,
2013-07-25 07:22:00,68.0,60.0,30.02,ESE,104,2.0,2.0,75,0.00,,,0.00,,2013-07-25 12:22:00,
2013-07-25 07:32:00,68.0,60.0,30.02,ESE,104,2.0,2.0,75,0.00,,,0.00,,2013-07-25 12:32:00,
2013-07-25 07:45:00,68.0,60.0,30.02,ESE,104,2.0,2.0,75,0.00,,,0.00,,2013-07-25 12:45:00,
2013-07-25 07:53:00,69.0,60.0,30.03,ESE,110,1.0,3.0,74,0.00,,,0.00,,2013-07-25 12:53:00,
2013-07-25 08:02:00,69.0,60.0,30.03,ESE,110,1.0,3.0,74,0.00,,,0.00,,2013-07-25 13:02:00,
2013-07-25 08:12:00,69.0,60.0,30.03,ESE,110,1.0,3.0,74,0.00,,,0.00,,2013-07-25 13:12:00,
2013-07-25 08:22:00,70.0,61.0,30.04,ESE,102,0.0,3.0,72,0.00,,,0.00,,2013-07-25 13:22:00,
2013-07-25 08:33:00,70.0,61.0,30.04,ESE,102,0.0,3.0,72,0.00,,,0.00,,2013-07-25 13:33:00,
2013-07-25 08:43:00,70.0,61.0,30.04,ESE,102,0.0,3.0,72,0.00,,,0.00,,2013-07-25 13:43:00,
2013-07-25 08:53:00,71.0,61.0,30.05,ESE,104,3.0,5.0,71,0.00,,,0.00,,2013-07-25 13:53:00,
2013-07-25 09:02:00,71.0,61.0,30.05,ESE,104,3.0,5.0,71,0.00,,,0.00,,2013-07-25 14:02:00,
2013-07-25 09:12:00,71.0,61.0,30.05,ESE,104,3.0,5.0,71,0.00,,,0.00,,2013-07-25 14:12:00,
2013-07-25 09:22:00,73.0,62.0,30.06,SW,214,0.0,1.0,69,0.00,,,0.00,,2013-07-25 14:22:00,
2013-07-25 09:33:00,73.0,62.0,30.06,SW,214,0.0,1.0,69,0.00,,,0.00,,2013-07-25 14:33:00,
2013-07-25 09:43:00,73.0,62.0,30.06,SW,214,0.0,1.0,69,0.00,,,0.00,,2013-07-25 14:43:00,
2013-07-25 09:53:00,75.0,63.0,30.06,SE,145,3.0,3.0,67,0.00,,,0.00,,2013-07-25 14:53:00,
2013-07-25 10:02:00,75.0,63.0,30.06,SE,145,3.0,3.0,67,0.00,,,0.00,,2013-07-25 15:02:00,
2013-07-25 10:12:00,75.0,63.0,30.06,SE,145,3.0,3.0,67,0.00,,,0.00,,2013-07-25 15:12:00,
2013-07-25 10:22:00,77.0,63.0,30.05,SE,132,3.0,3.0,63,0.00,,,0.00,,2013-07-25 15:22:00,
2013-07-25 10:32:00,77.0,63.0,30.05,SE,132,3.0,3.0,63,0.00,,,0.00,,2013-07-25 15:32:00,
2013-07-25 10:44:00,77.0,63.0,30.05,SE,132,3.0,3.0,63,0.00,,,0.00,,2013-07-25 15:44:00,
2013-07-25 10:53:00,79.0,64.0,30.05,SW,217,3.0,4.0,60,0.00,,,0.00,,2013-07-25 15:53:00,
2013-07-25 11:02:00,79.0,64.0,30.05,SW,217,3.0,4.0,60,0.00,,,0.00,,2013-07-25 16:02:00,
2013-07-25 11:12:00,79.0,64.0,30.05,SW,217,3.0,4.0,60,0.00,,,0.00,,2013-07-25 16:12:00,
2013-07-25 11:22:00,82.0,65.0,30.05,ESE,115,2.0,4.0,57,0.00,,,0.00,,2013-07-25 16:22:00,
2013-07-25 11:33:00,82.0,65.0,30.05,ESE,115,2.0,4.0,57,0.00,,,0.00,,2013-07-25 16:33:00,
2013-07-25 11:45:00,82.0,65.0,30.05,ESE,115,2.0,4.0,57,0.00,,,0.00,,2013-07-25 16:45:00,
2013-07-25 11:53:00,83.0,63.0,30.05,SSE,148,1.0,4.0,51,0.00,,,0.00,,2013-07-25 16:53:00,
2013-07-25 12:03:00,83.0,63.0,30.05,SSE,148,1.0,4.0,51,0.00,,,0.00,,2013-07-25 17:03:00,
2013-07-25 12:12:00,83.0,63.0,30.05,SSE,148,1.0,4.0,51,0.00,,,0.00,,2013-07-25 17:12:00,
2013-07-25 12:22:00,84.0,64.0,30.04,SE,128,2.0,4.0,51,0.00,,,0.00,,2013-07-25 17:22:00,
2013-07-25 12:32:00,84.0,64.0,30.04,SE,128,2.0,4.0,51,0.00,,,0.00,,2013-07-25 17:32:00,
2013-07-25 12:43:00,84.0,64.0,30.04,SE,128,2.0,4.0,51,0.00,,,0.00,,2013-07-25 17:43:00,
2013-07-25 12:53:00,84.0,64.0,30.03,SE,127,1.0,2.0,51,0.00,,,0.00,,2013-07-25 17:53:00,
2013-07-25 13:02:00,84.0,64.0,30.03,SE,127,1.0,2.0,51,0.00,,,0.00,,2013-07-25 18:02:00,
2013-07-25 13:12:00,84.0,64.0,30.03,SE,127,1.0,2.0,51,0.00,,,0.00,,2013-07-25 18:12:00,
2013-07-25 13:22:00,84.0,65.0,30.03,SE,127,1.0,3.0,53,0.00,,,0.00,,2013-07-25 18:22:00,
2013-07-25 13:33:00,84.0,65.0,30.03,SE,127,1.0,3.0,53,0.00,,,0.00,,2013-07-25 18:33:00,
2013-07-25 13:43:00,84.0,65.0,30.03,SE,127,1.0,3.0,53,0.00,,,0.00,,2013-07-25 18:43:00,
2013-07-25 13:52:00,83.0,65.0,30.03,North,360,0.0,0.0,54,0.00,,,0.00,,2013-07-25 18:52:00,
2013-07-25 14:02:00,83.0,65.0,30.03,North,360,0.0,0.0,54,0.00,,,0.00,,2013-07-25 19:02:00,
2013-07-25 14:12:00,83.0,65.0,30.03,North,360,0.0,0.0,54,0.00,,,0.00,,2013-07-25 19:12:00,
2013-07-25 14:22:00,82.0,65.0,30.03,North,360,0.0,0.0,57,0.00,,,0.00,,2013-07-25 19:22:00,
2013-07-25 14:33:00,82.0,65.0,30.03,North,360,0.0,0.0,57,0.00,,,0.00,,2013-07-25 19:33:00,
2013-07-25 14:43:00,82.0,65.0,30.03,North,360,0.0,0.0,57,0.00,,,0.00,,2013-07-25 19:43:00,
2013-07-25 14:53:00,82.0,63.0,30.02,North,360,0.0,0.0,53,0.00,,,0.00,,2013-07-25 19:53:00,
2013-07-25 15:02:00,82.0,63.0,30.02,North,360,0.0,0.0,53,0.00,,,0.00,,2013-07-25 20:02:00,
2013-07-25 15:12:00,82.0,63.0,30.02,North,360,0.0,0.0,53,0.00,,,0.00,,2013-07-25 20:12:00,
2013-07-25 15:22:00,82.0,66.0,30.01,SE,144,0.0,2.0,58,0.00,,,0.00,,2013-07-25 20:22:00,
2013-07-25 15:32:00,82.0,66.0,30.01,SE,144,0.0,2.0,58,0.00,,,0.00,,2013-07-25 20:32:00,
2013-07-25 15:43:00,82.0,66.0,30.01,SE,144,0.0,2.0,58,0.00,,,0.00,,2013-07-25 20:43:00,
2013-07-25 15:54:00,81.0,66.0,30.02,North,360,0.0,0.0,60,0.00,,,0.00,,2013-07-25 20:54:00,
2013-07-25 16:03:00,81.0,66.0,30.02,North,360,0.0,0.0,60,0.00,,,0.00,,2013-07-25 21:03:00,
2013-07-25 16:12:00,81.0,66.0,30.02,North,360,0.0,0.0,60,0.00,,,0.00,,2013-07-25 21:12:00,
2013-07-25 16:22:00,81.0,69.0,30.03,North,360,0.0,0.0,66,0.00,,,0.00,,2013-07-25 21:22:00,
2013-07-25 16:32:00,81.0,69.0,30.03,North,360,0.0,0.0,66,0.00,,,0.00,,2013-07-25 21:32:00,
2013-07-25 16:44:00,81.0,69.0,30.03,North,360,0.0,0.0,66,0.00,,,0.00,,2013-07-25 21:44:00,
2013-07-25 17:12:00,75.0,69.0,30.05,North,358,2.0,3.0,81,0.01,,,0.01,,2013-07-25 22:12:00,
2013-07-25 17:22:00,72.0,67.0,30.07,ENE,65,1.0,2.0,85,0.04,,,0.04,,2013-07-25 22:22:00,
2013-07-25 17:32:00,72.0,67.0,30.07,ENE,65,1.0,2.0,85,0.04,,,0.04,,2013-07-25 22:32:00,
2013-07-25 17:43:00,72.0,67.0,30.07,ENE,65,1.0,2.0,85,0.04,,,0.04,,2013-07-25 22:43:00,
2013-07-25 17:52:00,71.0,67.0,30.05,ENE,66,0.0,0.0,88,0.05,,,0.06,,2013-07-25 22:52:00,
2013-07-25 18:02:00,71.0,67.0,30.05,ENE,66,0.0,0.0,88,0.05,,,0.06,,2013-07-25 23:02:00,
2013-07-25 18:12:00,71.0,67.0,30.05,ENE,66,0.0,0.0,88,0.05,,,0.06,,2013-07-25 23:12:00,
2013-07-25 18:22:00,71.0,68.0,30.02,North,360,0.0,0.0,90,0.03,,,0.07,,2013-07-25 23:22:00,
2013-07-25 18:32:00,71.0,68.0,30.02,North,360,0.0,0.0,90,0.03,,,0.07,,2013-07-25 23:32:00,
2013-07-25 18:43:00,71.0,68.0,30.02,North,360,0.0,0.0,90,0.03,,,0.07,,2013-07-25 23:43:00,
2013-07-25 18:52:00,71.0,68.0,30.01,NE,44,0.0,0.0,90,0.01,,,0.07,,2013-07-25 23:52:00,
2013-07-25 19:02:00,71.0,68.0,30.01,NE,44,0.0,0.0,90,0.01,,,0.07,,2013-07-26 00:02:00,
2013-07-25 19:12:00,71.0,68.0,30.01,NE,44,0.0,0.0,90,0.01,,,0.07,,2013-07-26 00:12:00,
2013-07-25 19:22:00,71.0,68.0,30.00,North,360,0.0,1.0,90,0.00,,,0.07,,2013-07-26 00:22:00,
2013-07-25 19:33:00,71.0,68.0,30.00,North,360,0.0,1.0,90,0.00,,,0.07,,2013-07-26 00:33:00,
2013-07-25 19:43:00,71.0,68.0,30.00,North,360,0.0,1.0,90,0.00,,,0.07,,2013-07-26 00:43:00,
2013-07-25 19:52:00,72.0,69.0,30.00,North,360,0.0,0.0,90,0.00,,,0.07,,2013-07-26 00:52:00,
2013-07-25 20:02:00,72.0,69.0,30.00,North,360,0.0,0.0,90,0.00,,,0.07,,2013-07-26 01:02:00,
2013-07-25 20:12:00,72.0,69.0,30.00,North,360,0.0,0.0,90,0.00,,,0.07,,2013-07-26 01:12:00,
2013-07-25 20:22:00,71.0,68.0,29.98,North,360,0.0,0.0,90,0.00,,,0.07,,2013-07-26 01:22:00,
2013-07-25 20:32:00,71.0,68.0,29.98,North,360,0.0,0.0,90,0.00,,,0.07,,2013-07-26 01:32:00,
2013-07-25 20:43:00,71.0,68.0,29.98,North,360,0.0,0.0,90,0.00,,,0.07,,2013-07-26 01:43:00,
2013-07-25 20:52:00,71.0,68.0,29.98,NE,47,0.0,0.0,90,0.00,,,0.07,,2013-07-26 01:52:00,
2013-07-25 21:02:00,71.0,68.0,29.98,NE,47,0.0,0.0,90,0.00,,,0.07,,2013-07-26 02:02:00,
2013-07-25 21:12:00,71.0,68.0,29.98,NE,47,0.0,0.0,90,0.00,,,0.07,,2013-07-26 02:12:00,
2013-07-25 21:22:00,71.0,68.0,29.97,North,360,0.0,0.0,90,0.00,,,0.07,,2013-07-26 02:22:00,
2013-07-25 21:32:00,71.0,68.0,29.97,North,360,0.0,0.0,90,0.00,,,0.07,,2013-07-26 02:32:00,
2013-07-25 21:43:00,71.0,68.0,29.97,North,360,0.0,0.0,90,0.00,,,0.07,,2013-07-26 02:43:00,
2013-07-25 21:52:00,71.0,68.0,29.98,West,279,0.0,0.0,90,0.00,,,0.07,,2013-07-26 02:52:00,
2013-07-25 22:02:00,71.0,68.0,29.98,West,279,0.0,0.0,90,0.00,,,0.07,,2013-07-26 03:02:00,
2013-07-25 22:12:00,71.0,68.0,29.98,West,279,0.0,0.0,90,0.00,,,0.07,,2013-07-26 03:12:00,
2013-07-25 22:22:00,71.0,68.0,30.00,North,360,0.0,0.0,90,0.01,,,0.08,,2013-07-26 03:22:00,
2013-07-25 22:32:00,71.0,68.0,30.00,North,360,0.0,0.0,90,0.01,,,0.08,,2013-07-26 03:32:00,
2013-07-25 22:44:00,71.0,68.0,30.00,North,360,0.0,0.0,90,0.01,,,0.08,,2013-07-26 03:44:00,
2013-07-25 22:53:00,71.0,68.0,29.99,North,3,1.0,4.0,90,0.04,,,0.11,,2013-07-26 03:53:00,
2013-07-25 23:02:00,71.0,68.0,29.99,North,3,1.0,4.0,90,0.04,,,0.11,,2013-07-26 04:02:00,
2013-07-25 23:12:00,71.0,68.0,29.99,North,3,1.0,4.0,90,0.04,,,0.11,,2013-07-26 04:12:00,
2013-07-25 23:22:00,70.0,67.0,30.00,North,360,0.0,0.0,90,0.03,,,0.11,,2013-07-26 04:22:00,
2013-07-25 23:32:00,70.0,67.0,30.00,North,360,0.0,0.0,90,0.03,,,0.11,,2013-07-26 04:32:00,
2013-07-25 23:43:00,70.0,67.0,30.00,North,360,0.0,0.0,90,0.03,,,0.11,,2013-07-26 04:43:00,
2013-07-25 23:53:00,70.0,67.0,29.98,North,5,0.0,1.0,90,0.01,,,0.12,,2013-07-26 04:53:00,